Change the Weather History Date:

Sunday, August 4, 2013

  Actual Average Record
Temperature  
Mean Temperature 54 °F -  
Max Temperature 59 °F 66 °F 84 °F (1940)
Min Temperature 50 °F 52 °F 45 °F (1963)
Degree Days  
Heating Degree Days 10    
Growing Degree Days 4 (Base 50)    
Moisture  
Dew Point 53 °F    
Average Humidity 97    
Maximum Humidity 100    
Minimum Humidity 81    
Precipitation  
Precipitation 0.00 in - - ()
Sea Level Pressure  
Sea Level Pressure 29.99 in    
Wind  
Wind Speed 3 mph (WNW)    
Max Wind Speed 6 mph    
Max Gust Speed -    
Visibility 3 miles    
Events Fog    
Averages and records for this station are not official NWS values.
T = Trace of Precipitation, MM = Missing Value Source: NWS Daily Summary

Daily Weather History Graph

Daily Weather History Graph

Search for Another Location

Airport or City:

Trip Planner

Search our weather history database for the weather conditions in past years. The results will help you decide how hot, cold, wet, or windy it might be!

Date:

Astronomy

Aug. 04, 2013 Rise Set
Actual Time 6:13 AM PDT 8:31 PM PDT
Civil Twilight 5:42 AM PDT 9:03 PM PDT
Nautical Twilight 5:03 AM PDT 9:41 PM PDT
Astronomical Twilight 4:21 AM PDT 10:24 PM PDT
Moon 4:19 AM PDT (8/4) 6:58 PM PDT (8/4)
Length of Visible Light 15h 20m
Length of Day
14h 18m
Waning Crescent, 4% of the Moon is Illuminated
Aug 4
Waning Crescent
Aug 6
New
Aug 14
First Quarter
Aug 20
Full
Aug 28
Last Quarter

Hourly Weather History & Observations

Time (PDT) Temp. Dew Point Humidity Pressure Visibility Wind Dir Wind Speed Gust Speed Precip Events Conditions
12:56 AM 52.9 °F 52.9 °F 100% 29.99 in 0.2 mi Calm Calm - N/A Fog Fog
1:10 AM 53.6 °F 53.6 °F 100% 29.99 in 0.2 mi NNW 4.6 mph - N/A Fog Fog
1:41 AM 53.6 °F 53.6 °F 100% 29.99 in 0.2 mi NNW 3.5 mph - N/A Fog Fog
1:56 AM 52.9 °F 52.9 °F 100% 29.99 in 0.2 mi Calm Calm - N/A Fog Fog
2:08 AM 53.6 °F 53.6 °F 100% 29.99 in 0.2 mi NNW 3.5 mph - N/A Fog Fog
2:56 AM 52.0 °F 52.0 °F 100% 29.99 in 0.2 mi NW 4.6 mph - N/A Fog Fog
3:56 AM 52.0 °F 52.0 °F 100% 29.99 in 0.2 mi Calm Calm - N/A Fog Fog
4:56 AM 52.0 °F 52.0 °F 100% 29.98 in 0.2 mi Calm Calm - N/A Fog Fog
5:08 AM 51.8 °F 51.8 °F 100% 29.97 in 0.2 mi Calm Calm - N/A Fog Fog
5:56 AM 52.0 °F 52.0 °F 100% 29.99 in 0.2 mi NNW 3.5 mph - N/A Fog Fog
6:45 AM 51.8 °F 51.8 °F 100% 29.98 in 0.2 mi NNW 3.5 mph - N/A Fog Fog
6:56 AM 50.9 °F 50.9 °F 100% 29.99 in 0.2 mi NNW 3.5 mph - N/A Fog Fog
7:56 AM 52.0 °F 52.0 °F 100% 29.99 in 0.2 mi NNW 3.5 mph - N/A Fog Fog
8:56 AM 52.0 °F 52.0 °F 100% 30.00 in 0.2 mi Calm Calm - N/A Fog Fog
9:06 AM 51.8 °F 51.8 °F 100% 29.99 in 0.2 mi Variable 3.5 mph - N/A Fog Fog
9:17 AM 53.6 °F 53.6 °F 100% 29.99 in 0.2 mi NW 3.5 mph - N/A Fog Fog
9:56 AM 52.9 °F 52.9 °F 100% 29.99 in 0.2 mi WNW 5.8 mph - N/A Fog Fog
10:38 AM 53.6 °F 53.6 °F 100% 29.98 in 0.2 mi West 4.6 mph - N/A Fog Fog
10:56 AM 52.9 °F 52.9 °F 100% 29.99 in 0.5 mi WNW 5.8 mph - N/A Fog Fog
11:22 AM 53.6 °F 53.6 °F 100% 29.99 in 1.0 mi WNW 4.6 mph - N/A   Overcast
11:30 AM 53.6 °F 53.6 °F 100% 29.99 in 0.8 mi WNW 4.6 mph - N/A   Overcast
11:38 AM 53.6 °F 53.6 °F 100% 29.99 in 1.2 mi NW 3.5 mph - N/A   Overcast
11:47 AM 53.6 °F 53.6 °F 100% 29.99 in 2.0 mi West 4.6 mph - N/A   Overcast
11:56 AM 54.9 °F 54.0 °F 97% 29.99 in 2.5 mi West 4.6 mph - N/A   Overcast
12:04 PM 55.4 °F 53.6 °F 94% 29.98 in 4.0 mi Variable 4.6 mph - N/A   Overcast
12:56 PM 57.9 °F 54.0 °F 87% 29.99 in 10.0 mi West 4.6 mph - N/A   Mostly Cloudy
1:20 PM 57.2 °F 53.6 °F 88% 29.98 in 10.0 mi SSW 4.6 mph - N/A   Scattered Clouds
1:56 PM 59.9 °F 54.0 °F 81% 29.99 in 10.0 mi West 5.8 mph - N/A   Clear
2:20 PM 57.2 °F 53.6 °F 88% 29.99 in 10.0 mi SW 5.8 mph - N/A   Partly Cloudy
2:37 PM 57.2 °F 53.6 °F 88% 29.99 in 10.0 mi Variable 4.6 mph - N/A   Mostly Cloudy
2:56 PM 57.9 °F 52.9 °F 83% 29.99 in 10.0 mi Variable 4.6 mph - N/A   Overcast
3:31 PM 55.4 °F 53.6 °F 94% 29.98 in 9.0 mi Variable 5.8 mph - N/A   Overcast
3:56 PM 56.8 °F 52.9 °F 87% 29.98 in 10.0 mi Variable 5.8 mph - N/A   Overcast
4:23 PM 55.4 °F 53.6 °F 94% 29.97 in 8.0 mi SSW 5.8 mph - N/A   Overcast
4:45 PM 55.4 °F 53.6 °F 94% 29.97 in 2.5 mi Variable 3.5 mph - N/A   Overcast
4:56 PM 56.8 °F 52.9 °F 87% 29.98 in 9.0 mi Variable 3.5 mph - N/A   Overcast
5:56 PM 57.9 °F 54.0 °F 87% 29.97 in 10.0 mi Calm Calm - N/A   Scattered Clouds
6:56 PM 55.9 °F 52.9 °F 89% 29.97 in 8.0 mi Calm Calm - N/A   Partly Cloudy
7:56 PM 54.9 °F 52.9 °F 93% 29.98 in 8.0 mi Calm Calm - N/A   Clear
8:11 PM 55.4 °F 53.6 °F 94% 29.97 in 6.0 mi SW 3.5 mph - N/A   Scattered Clouds
8:19 PM 53.6 °F 53.6 °F 100% 29.97 in 2.5 mi Calm Calm - N/A   Mostly Cloudy
8:22 PM 53.6 °F 53.6 °F 100% 29.97 in 1.2 mi Calm Calm - N/A   Mostly Cloudy
8:27 PM 53.6 °F 53.6 °F 100% 29.97 in 0.8 mi Calm Calm - N/A   Mostly Cloudy
8:34 PM 53.6 °F 53.6 °F 100% 29.98 in 0.2 mi Calm Calm - N/A Fog Fog
8:56 PM 52.9 °F 52.9 °F 100% 29.99 in 0.2 mi Calm Calm - N/A Fog Fog
9:20 PM 53.6 °F 53.6 °F 100% 29.99 in 0.2 mi Calm Calm - N/A Fog Fog
9:30 PM 53.6 °F 53.6 °F 100% 29.99 in 0.2 mi Calm Calm - N/A Fog Fog
9:38 PM 53.6 °F 53.6 °F 100% 29.99 in 0.2 mi Calm Calm - N/A Fog Fog
9:56 PM 52.9 °F 52.9 °F 100% 30.00 in 0.2 mi ESE 3.5 mph - N/A Fog Fog
10:18 PM 53.6 °F 53.6 °F 100% 30.00 in 0.2 mi SSE 3.5 mph - N/A Fog Fog
10:56 PM 52.0 °F 52.0 °F 100% 30.01 in 0.2 mi Calm Calm - N/A Fog Fog
11:25 PM 51.8 °F 51.8 °F 100% 30.00 in 0.5 mi Calm Calm - N/A Fog Fog
11:34 PM 51.8 °F 51.8 °F 100% 30.00 in 0.2 mi Calm Calm - N/A Fog Fog
11:46 PM 51.8 °F 51.8 °F 100% 30.01 in 0.5 mi Calm Calm - N/A Fog Fog
11:56 PM 52.0 °F 52.0 °F 100% 30.01 in 0.2 mi Calm Calm - N/A Fog Fog